User: anonymous   Login
Location: Unspecified
(0.0000°N, 0.0000°E)
Time: 15:30:21
(UTC+00:00)
Language:

Hubble Space Telescope - Orbit

View from above orbital plane
View from above orbital plane
View from above satellite
View from above satellite

Ground track
Ground track

The orbit data is extracted from the following two-line orbital elements,

1 20580U 90037B   21127.57771966  .00000496  00000-0  19042-4 0  9994
2 20580  28.4716 335.5418 0002651 339.8932  20.1540 15.09632412505077
Epoch (UTC): 07 May 2021 13:51:54
Eccentricity: 0.0002651
inclination: 28.4716°
perigee height: 535 km
apogee height: 539 km
right ascension of ascending node: 335.5418°
argument of perigee: 339.8932°
revolutions per day: 15.09632412
mean anomaly at epoch: 20.1540°
orbit number at epoch: 50507

The dashed part of the orbit path shows where the satellite is in the earth's shadow,  

DLR